Wetbulb
72.09 74.81 76.62 76.98 77.55 77.51 77.53 77.57 77.61 77.77 77.63 77.72 78.05 77.92 77.64 77.53 77.84 78.08 77.54 77.54 77.34 77.63 77.25 77.22 77.33 77.51 77.10 77.21 77.08 76.80 77.18 77.06 76.90 76.66 76.73 76.59 76.42 76.87 76.61 76.87 75.87 74.52 75.97
73.77 75.38 77.24 77.62 78.12 77.28 77.32 77.69 77.33 77.63 77.43 77.36 77.57 77.57 77.69 77.64 77.65 77.27 77.14 77.30 77.35 77.44 77.19 76.77 77.13 77.23 77.17 76.97 77.01 77.13 76.94 76.87 76.90 76.59 76.83 76.64 76.14 76.53 76.93 76.66 76.31 75.30 76.22
73.72 75.03 76.13 77.81 78.24 77.19 77.23 77.36 77.31 77.43 77.44 77.77 77.85 77.60 77.52 77.77 77.63 77.72 77.63 77.60 77.47 77.36 77.23 76.76 76.59 76.64 76.74 77.00 76.78 76.65 76.32 76.52 76.89 77.14 76.17 74.06 74.29 76.18 76.40 76.07 75.82 75.43 75.58
73.69 74.37 75.62 78.20 78.19 77.31 77.35 77.47 77.85 77.44 77.22 77.46 77.61 77.49 77.45 77.39 77.70 77.66 77.58 77.50 77.36 77.42 77.14 77.00 76.94 76.83 75.81 75.32 75.39 76.10 76.02 76.04 76.20 76.56 74.75 72.13 72.55 75.64 75.87 75.48 75.68 75.91 75.69
73.60 74.76 75.80 78.31 78.05 77.36 77.20 77.23 77.23 77.33 76.74 76.12 76.15 76.82 77.09 77.24 77.62 77.71 77.58 77.56 77.14 76.51 75.93 75.63 75.65 75.98 75.67 75.72 75.36 74.82 74.60 74.82 75.35 75.93 74.44 70.61 71.88 75.20 75.06 75.59 75.44 75.56 75.24
74.07 75.50 77.58 78.38 77.52 77.37 77.29 77.65 77.68 77.27 77.03 77.53 75.87 75.79 76.39 76.34 77.15 77.44 77.25 76.89 76.34 75.74 75.15 75.12 75.40 75.21 74.93 75.32 75.34 75.64 76.05 75.85 76.10 72.30 72.34 74.01 72.54 75.83 75.92 75.98 75.49 74.77 74.32
73.92 75.16 76.63 78.66 78.50 77.73 78.10 77.45 77.77 77.85 77.48 77.47 76.59 75.82 75.95 75.98 76.28 76.66 76.56 76.15 75.79 75.26 74.76 75.57 76.10 76.24 75.48 75.57 75.73 76.08 76.24 75.93 73.44 72.53 73.18 73.24 73.38 75.84 75.63 75.02 75.03 74.68 74.50
73.73 75.23 75.12 78.08 78.51 78.21 77.29 77.76 77.65 77.36 77.57 77.29 76.78 75.71 75.95 75.81 76.00 75.92 75.71 75.60 75.49 75.07 75.32 75.68 75.93 75.82 75.40 75.18 75.29 75.99 76.00 75.85 73.31 71.14 72.31 73.63 75.84 76.05 74.64 75.46 75.13 74.70 75.27
74.32 74.35 74.77 75.68 76.82 77.72 77.45 77.58 77.39 77.10 76.89 76.67 76.20 76.36 76.25 76.23 76.15 76.01 76.39 76.36 75.57 75.68 75.96 75.74 75.06 76.04 75.68 75.87 76.06 76.24 76.00 75.10 70.64 69.54 72.36 73.01 76.41 75.94 74.62 74.19 74.45 75.27 74.50
73.52 73.76 73.73 74.77 75.11 74.97 74.68 77.38 77.16 77.46 77.25 77.31 76.76 76.43 76.15 76.40 76.65 76.43 77.61 77.56 76.78 76.40 76.10 75.53 74.88 75.85 77.03 77.16 77.36 77.14 76.78 76.13 70.83 68.53 69.90 71.70 76.68 75.70 74.26 74.22 74.24 74.46 74.48
72.32 72.42 73.64 73.76 74.42 73.98 74.23 75.69 77.71 77.14 77.28 77.40 77.38 77.57 77.59 74.23 74.43 74.50 76.40 77.18 77.41 77.41 77.24 77.30 77.54 77.52 77.36 77.77 78.06 78.78 78.63 72.53 69.54 68.75 70.38 75.85 76.27 75.48 75.05 74.82 74.39 74.28 74.20
71.17 71.90 72.22 72.72 73.29 73.73 72.93 72.99 73.51 74.31 74.38 74.40 74.72 74.78 75.43 74.82 74.16 75.73 76.38 79.54 79.72 79.71 80.20 79.31 79.43 79.07 78.58 74.96 73.85 75.77 74.91 72.43 66.19 67.10 69.99 76.33 76.49 75.92 75.24 75.49 75.72 74.81 74.67
71.41 72.17 69.24 71.25 73.12 73.73 70.70 72.34 71.66 72.69 73.39 73.97 73.94 73.65 73.78 74.84 74.32 74.55 73.68 75.05 74.93 77.24 72.09 74.30 77.64 77.79 72.37 72.77 72.65 67.36 70.65 71.21 68.24 66.51 70.71 75.89 76.05 76.45 75.59 75.83 75.46 74.73 74.29
70.36 70.32 68.77 70.56 72.69 72.16 71.05 72.81 71.39 72.32 71.24 72.39 73.29 68.78 73.44 73.69 73.55 73.20 73.57 73.76 74.77 71.37 66.18 67.48 74.23 71.39 68.69 72.93 72.03 68.21 71.97 70.60 71.34 68.29 68.96 75.63 75.24 76.13 76.33 76.23 75.95 75.41 75.15
70.28 70.41 69.49 71.73 71.54 72.22 73.25 72.64 71.69 70.73 71.58 69.64 71.14 64.91 73.14 73.04 73.65 74.74 73.24 72.48 73.71 73.37 71.36 68.91 72.74 70.06 69.58 72.07 71.63 70.33 69.91 70.27 71.05 72.50 69.96 75.41 75.96 76.03 76.65 76.24 76.25 75.95 75.78
70.10 70.13 71.33 73.30 73.18 73.08 72.64 70.53 69.08 67.24 67.63 69.10 74.11 68.38 72.81 67.16 74.17 74.11 70.95 71.35 72.40 72.18 72.52 73.60 69.80 68.47 67.90 70.14 72.94 70.47 69.32 69.53 69.52 73.19 72.00 72.01 76.46 75.71 76.54 77.25 77.43 77.03 76.67
70.79 71.25 70.38 72.18 73.24 73.07 72.48 72.39 71.38 71.54 71.57 71.19 74.22 72.15 65.57 67.50 73.80 75.21 72.81 71.47 72.81 72.95 72.63 73.30 70.29 69.67 70.29 70.13 70.06 70.33 69.91 68.86 71.13 71.66 71.51 73.61 74.73 76.25 76.26 76.73 77.20 77.66 77.90
72.53 71.65 71.46 73.59 72.64 73.29 72.47 73.28 74.36 72.09 73.04 72.92 73.97 74.41 73.53 73.60 73.19 73.18 72.76 74.07 73.46 72.24 71.96 72.13 72.07 69.93 70.14 69.14 69.60 71.47 68.63 71.81 70.32 70.37 69.76 73.34 72.51 71.49 73.60 76.33 76.92 77.10 77.57
72.85 71.54 70.16 70.92 71.79 72.50 73.51 73.84 73.93 72.62 72.23 72.59 73.42 73.76 73.75 73.56 73.51 71.22 71.68 72.90 72.24 70.95 71.59 74.32 73.25 72.45 70.60 70.83 71.04 70.52 67.38 69.78 71.63 73.38 71.88 70.25 69.47 70.28 69.07 70.92 73.72 76.41 77.50
71.99 72.04 71.15 71.62 71.62 72.63 73.57 74.38 73.31 72.82 71.99 74.71 72.95 73.26 73.64 72.31 72.84 72.03 71.64 71.62 71.60 70.62 72.96 72.91 72.76 72.55 72.31 72.20 73.54 72.92 70.57 71.15 70.70 69.51 70.64 71.35 71.32 71.33 69.48 67.43 69.34 74.46 77.43
72.60 72.41 71.11 72.63 71.99 73.62 72.32 71.34 71.29 73.14 72.63 71.58 73.07 73.64 73.22 73.37 73.45 73.38 72.89 73.64 72.90 72.88 71.18 71.37 71.21 70.79 70.42 71.03 69.06 69.92 70.61 70.33 69.07 69.86 69.48 69.40 70.43 71.97 70.76 69.42 72.28 73.85 74.32
71.69 71.73 70.62 73.03 72.46 72.74 72.66 72.18 72.65 74.63 72.20 73.33 72.27 71.62 72.61 72.20 73.09 74.57 74.22 72.93 74.31 73.17 72.42 72.50 71.38 70.01 69.96 70.84 68.76 68.13 64.62 66.62 68.35 70.34 69.33 70.34 69.14 71.66 71.68 71.87 74.54 74.83 74.81
70.49 71.32 72.50 72.60 72.45 72.07 71.90 73.35 73.36 73.61 73.22 72.15 72.22 72.45 73.29 74.66 73.28 72.64 73.46 74.70 75.68 74.33 72.53 72.75 73.98 72.47 70.48 70.42 70.03 68.61 63.97 62.70 65.33 67.99 67.85 69.85 68.87 69.49 70.22 69.35 71.18 74.36 74.13
71.47 72.42 72.98 73.28 72.68 72.30 73.22 72.36 71.93 70.84 69.45 70.93 70.85 71.64 71.81 72.98 73.24 71.39 73.55 72.24 72.07 74.32 73.02 73.39 74.51 73.86 72.50 70.57 71.77 71.78 69.69 68.44 65.21 63.48 67.59 68.94 69.44 69.01 69.33 70.17 71.76 72.10 73.82
71.93 72.15 72.97 73.40 72.95 72.26 73.31 73.30 72.65 71.68 71.60 71.13 69.63 68.10 69.12 69.75 72.06 74.68 72.98 71.25 70.09 73.01 73.29 73.26 73.42 73.23 72.44 71.86 71.17 70.38 71.08 70.62 69.16 66.67 64.79 66.15 67.58 68.58 68.59 68.19 67.50 66.91 70.13
71.53 72.02 72.92 72.43 71.71 72.79 73.63 73.36 72.12 71.15 71.67 70.33 70.10 69.07 69.39 70.66 71.35 73.14 72.59 69.76 70.19 72.59 72.19 72.65 72.68 72.49 73.16 73.23 73.27 72.72 71.17 69.05 68.68 67.09 65.01 66.07 65.88 68.10 68.26 68.45 68.16 68.48 69.20
MSLP
1016.71 1016.51 1016.40 1016.25 1016.22 1016.09 1016.23 1016.18 1016.26 1016.24 1016.28 1016.35 1016.33 1016.34 1016.38 1016.41 1016.41 1016.47 1016.57 1016.65 1016.69 1016.77 1016.82 1016.75 1016.74 1016.78 1016.89 1016.97 1017.11 1017.21 1017.31 1017.38 1017.42 1017.55 1017.75 1018.02 1018.23 1018.32 1018.42 1018.65 1018.87 1019.13 1019.11
1016.28 1016.41 1016.40 1016.39 1016.24 1016.22 1016.33 1016.36 1016.47 1016.53 1016.53 1016.53 1016.54 1016.55 1016.64 1016.70 1016.69 1016.73 1016.77 1016.82 1016.83 1016.94 1017.00 1016.99 1016.91 1016.90 1016.95 1017.05 1017.27 1017.42 1017.57 1017.67 1017.79 1017.93 1018.05 1018.14 1018.36 1018.45 1018.51 1018.76 1018.91 1018.85 1018.96
1016.24 1016.44 1016.56 1016.57 1016.33 1016.43 1016.45 1016.53 1016.58 1016.71 1016.69 1016.70 1016.71 1016.72 1016.85 1016.89 1016.91 1016.92 1016.91 1016.94 1016.97 1017.11 1017.22 1017.17 1017.14 1017.08 1017.10 1017.21 1017.37 1017.49 1017.70 1017.90 1018.05 1018.07 1018.22 1018.40 1018.46 1018.51 1018.70 1018.79 1018.79 1018.91 1018.92
1016.04 1016.45 1016.57 1016.61 1016.54 1016.60 1016.73 1016.77 1016.93 1016.95 1017.00 1016.97 1016.98 1016.98 1017.06 1017.08 1017.04 1017.04 1017.08 1017.13 1017.16 1017.26 1017.33 1017.32 1017.23 1017.15 1017.23 1017.41 1017.55 1017.80 1017.92 1018.03 1018.17 1018.29 1018.40 1018.48 1018.52 1018.62 1018.64 1018.76 1018.96 1018.97 1019.08
1016.13 1016.49 1016.58 1016.69 1016.72 1016.83 1017.05 1017.04 1017.16 1017.23 1017.18 1017.24 1017.26 1017.22 1017.24 1017.23 1017.20 1017.26 1017.33 1017.30 1017.32 1017.36 1017.41 1017.44 1017.43 1017.36 1017.40 1017.61 1017.75 1017.89 1018.00 1017.97 1018.03 1018.04 1018.45 1018.80 1018.67 1018.79 1018.70 1018.66 1018.69 1018.91 1019.18
1016.17 1016.57 1016.65 1016.72 1016.76 1016.99 1017.24 1017.20 1017.27 1017.38 1017.44 1017.42 1017.42 1017.43 1017.42 1017.45 1017.51 1017.54 1017.59 1017.58 1017.49 1017.53 1017.61 1017.66 1017.66 1017.70 1017.68 1017.73 1017.81 1017.88 1017.70 1017.98 1018.01 1017.87 1018.50 1018.78 1018.94 1018.90 1018.73 1018.72 1018.91 1019.06 1019.10
1016.45 1016.76 1016.81 1016.84 1016.95 1017.14 1017.32 1017.39 1017.43 1017.44 1017.52 1017.56 1017.50 1017.51 1017.55 1017.70 1017.76 1017.82 1017.77 1017.72 1017.65 1017.60 1017.73 1017.88 1017.92 1017.91 1017.89 1017.83 1017.83 1017.82 1017.75 1017.75 1018.05 1018.34 1018.60 1018.92 1019.03 1018.97 1018.99 1019.02 1019.16 1019.17 1019.10
1016.45 1016.84 1016.91 1017.08 1017.20 1017.34 1017.40 1017.46 1017.46 1017.51 1017.53 1017.66 1017.64 1017.60 1017.70 1017.77 1017.84 1017.88 1017.86 1017.77 1017.77 1017.84 1017.95 1018.04 1018.06 1018.07 1018.01 1017.85 1017.78 1017.79 1017.81 1018.15 1018.32 1018.49 1018.78 1018.95 1019.03 1019.08 1019.16 1019.38 1019.37 1019.35 1019.32
1016.22 1016.77 1017.11 1017.36 1017.39 1017.39 1017.41 1017.49 1017.64 1017.73 1017.82 1017.93 1017.84 1017.80 1017.88 1017.85 1017.75 1017.79 1017.83 1017.88 1017.94 1018.12 1018.18 1018.08 1018.15 1018.18 1018.18 1018.17 1018.11 1018.02 1017.99 1018.20 1018.39 1018.57 1018.75 1018.96 1018.98 1019.08 1019.10 1019.39 1019.38 1019.35 1019.34
1016.22 1016.79 1017.13 1017.35 1017.59 1017.50 1017.44 1017.53 1017.77 1017.84 1017.97 1018.00 1018.04 1018.05 1018.17 1018.07 1017.79 1017.72 1017.75 1017.81 1018.03 1018.34 1018.35 1018.35 1018.49 1018.61 1018.64 1018.64 1018.53 1018.36 1018.23 1018.55 1018.55 1018.55 1018.77 1018.92 1018.92 1018.98 1019.05 1019.18 1019.25 1019.28 1019.25
1016.36 1016.83 1017.17 1017.41 1017.54 1017.55 1017.34 1017.53 1017.76 1017.80 1017.75 1017.78 1017.78 1017.91 1018.04 1018.19 1018.00 1017.73 1017.74 1017.79 1017.99 1018.20 1018.37 1018.77 1018.64 1018.57 1018.41 1018.41 1018.72 1018.91 1019.10 1018.91 1018.67 1018.53 1018.58 1018.72 1018.75 1018.76 1018.82 1018.99 1019.16 1019.27 1019.18
1016.48 1016.99 1017.31 1017.46 1017.59 1017.52 1017.11 1017.39 1017.46 1017.40 1017.46 1017.63 1017.59 1017.94 1018.19 1018.07 1017.98 1017.78 1017.58 1017.70 1017.86 1018.71 1018.66 1018.21 1018.13 1018.38 1018.79 1018.90 1018.56 1018.46 1019.33 1019.52 1018.92 1018.41 1018.47 1018.42 1018.55 1018.52 1018.59 1018.72 1018.96 1019.12 1019.06
1016.17 1016.88 1017.46 1017.65 1017.37 1017.44 1017.37 1017.36 1017.22 1017.51 1017.22 1017.32 1018.14 1018.80 1019.06 1018.62 1018.26 1017.68 1017.62 1017.68 1018.50 1018.31 1018.30 1017.65 1017.73 1018.93 1020.54 1020.57 1020.53 1018.64 1019.12 1019.17 1019.03 1017.91 1017.94 1018.04 1018.18 1018.22 1018.18 1018.29 1018.47 1018.73 1018.79
1016.38 1016.72 1017.27 1017.21 1017.18 1017.19 1017.58 1017.44 1017.49 1017.51 1017.26 1018.04 1018.04 1018.67 1018.67 1018.48 1018.65 1017.84 1017.80 1018.03 1018.65 1017.67 1017.21 1017.61 1018.28 1019.92 1020.20 1020.16 1020.41 1020.52 1018.82 1018.76 1018.38 1018.62 1017.76 1018.12 1017.98 1017.84 1017.64 1017.72 1017.97 1018.24 1018.43
1016.01 1016.35 1016.96 1016.81 1017.05 1017.15 1017.40 1017.42 1017.38 1017.23 1016.93 1018.50 1017.95 1018.13 1019.53 1018.84 1019.45 1017.70 1017.38 1017.91 1018.26 1017.39 1017.16 1018.05 1018.95 1020.30 1020.64 1021.35 1020.59 1019.75 1018.66 1018.54 1018.53 1019.47 1019.31 1018.34 1018.59 1019.24 1018.98 1018.05 1017.61 1017.61 1017.80
1016.11 1016.34 1016.75 1017.03 1016.91 1016.85 1017.29 1017.64 1017.41 1017.22 1017.18 1018.46 1018.38 1018.16 1018.48 1019.42 1018.10 1017.76 1017.59 1017.90 1018.01 1017.30 1017.27 1017.51 1020.05 1020.18 1021.55 1020.84 1020.19 1020.41 1020.03 1018.55 1017.34 1018.95 1018.15 1018.03 1018.18 1017.74 1017.81 1017.76 1017.81 1017.82 1017.64
1015.94 1016.40 1016.85 1016.90 1017.09 1017.28 1017.14 1017.77 1017.54 1017.39 1017.14 1017.48 1018.22 1018.49 1018.24 1017.99 1018.08 1018.25 1017.89 1018.09 1018.22 1017.73 1017.52 1017.91 1019.12 1019.51 1019.47 1020.48 1021.95 1021.41 1020.43 1018.79 1019.55 1018.72 1017.49 1017.60 1017.13 1016.48 1016.34 1016.26 1016.73 1017.10 1017.31
1015.63 1016.45 1016.78 1016.95 1017.29 1017.56 1017.47 1017.48 1017.45 1017.58 1017.38 1017.47 1017.54 1017.74 1017.73 1017.77 1017.91 1018.08 1018.48 1018.57 1018.27 1017.76 1017.72 1018.21 1019.90 1019.94 1019.71 1020.68 1022.21 1020.79 1018.38 1018.05 1018.55 1019.11 1019.00 1017.18 1016.53 1016.05 1016.53 1015.82 1015.83 1016.22 1016.64
1015.55 1016.29 1016.76 1017.03 1017.32 1017.62 1017.58 1017.66 1017.61 1017.39 1017.27 1017.69 1017.64 1017.81 1017.69 1017.62 1017.74 1018.25 1018.71 1018.83 1018.46 1018.04 1018.31 1018.29 1018.41 1019.02 1019.49 1019.46 1020.27 1019.21 1018.42 1017.14 1017.48 1017.64 1017.96 1016.49 1016.17 1016.07 1015.93 1015.36 1015.56 1015.79 1015.94
1015.58 1016.11 1016.47 1016.92 1017.20 1017.56 1017.67 1017.82 1017.64 1017.60 1017.60 1017.76 1017.82 1017.75 1017.77 1017.89 1017.97 1018.22 1018.52 1018.62 1018.41 1018.25 1018.47 1018.36 1018.53 1018.48 1018.54 1018.72 1018.68 1018.42 1017.69 1016.83 1017.16 1017.32 1016.84 1015.69 1015.54 1014.99 1015.14 1015.48 1015.45 1015.21 1015.27
1015.60 1015.95 1016.43 1016.96 1017.30 1017.56 1018.02 1018.22 1018.09 1018.16 1018.21 1018.32 1018.02 1018.27 1018.41 1018.43 1018.29 1018.35 1018.40 1018.55 1018.60 1018.74 1018.77 1018.54 1018.56 1018.71 1018.68 1018.42 1018.82 1018.23 1017.47 1016.71 1017.18 1016.66 1016.16 1015.67 1015.15 1014.67 1014.85 1015.24 1015.37 1014.84 1014.65
1015.41 1015.79 1016.28 1016.73 1017.13 1017.56 1017.89 1018.18 1018.38 1018.32 1018.39 1018.33 1018.45 1018.72 1018.65 1018.38 1018.33 1018.66 1018.38 1018.38 1018.51 1018.66 1018.75 1018.89 1018.92 1018.90 1018.80 1018.36 1018.66 1018.62 1018.34 1017.63 1016.96 1016.72 1016.13 1015.32 1014.95 1014.57 1014.66 1014.29 1014.49 1014.47 1014.01
1015.05 1015.60 1016.13 1016.71 1017.03 1017.35 1017.62 1017.86 1017.91 1017.94 1018.29 1018.92 1019.37 1019.12 1018.77 1018.50 1018.64 1018.66 1018.83 1018.11 1017.89 1018.20 1018.57 1018.74 1018.60 1018.78 1018.97 1018.60 1018.36 1018.74 1018.68 1018.32 1017.50 1016.59 1015.79 1015.28 1014.82 1014.47 1013.98 1013.74 1013.60 1013.61 1013.70
1014.46 1015.01 1015.54 1016.15 1016.61 1016.92 1017.36 1017.75 1018.03 1018.34 1018.74 1019.52 1019.77 1019.46 1019.37 1018.98 1018.89 1018.51 1019.08 1019.22 1018.43 1018.27 1018.35 1018.43 1018.41 1018.52 1018.66 1018.73 1018.45 1017.97 1018.09 1018.17 1017.94 1017.16 1016.17 1015.56 1014.88 1014.75 1014.40 1013.84 1013.34 1013.09 1013.13
1014.09 1014.56 1015.12 1015.51 1016.06 1016.31 1016.95 1017.48 1017.84 1018.33 1018.62 1019.25 1019.83 1019.81 1019.52 1019.21 1019.12 1019.33 1019.34 1019.84 1018.64 1018.47 1018.70 1018.52 1018.26 1018.36 1018.49 1018.46 1018.47 1018.38 1018.08 1017.80 1017.57 1017.67 1017.18 1016.27 1015.55 1014.73 1014.20 1013.80 1013.49 1013.03 1012.82
1013.93 1014.39 1015.46 1016.99 1017.43 1017.31 1016.44 1017.08 1017.80 1018.43 1018.66 1019.30 1019.65 1019.52 1019.58 1019.46 1019.29 1019.65 1019.25 1019.05 1019.19 1018.58 1018.56 1018.33 1018.00 1018.00 1018.04 1018.10 1018.09 1018.04 1017.93 1017.97 1017.84 1017.70 1017.32 1016.50 1015.91 1015.04 1014.19 1013.64 1013.29 1012.93 1012.56
Wind_Speed
5 5 9 10 13 15 14 15 14 15 15 15 15 15 16 16 16 15 15 15 15 15 15 14 14 15 14 14 15 15 16 15 17 18 17 16 14 11 11 16 16 13 15
8 7 11 11 14 15 15 14 14 13 14 14 14 15 15 15 15 15 15 15 15 15 14 14 14 13 12 12 12 13 14 14 15 17 17 16 15 15 17 17 16 12 14
12 9 9 11 14 15 14 13 13 12 13 14 14 14 14 14 14 15 15 14 14 14 14 13 12 12 9 11 10 10 10 11 11 15 16 8 8 14 15 15 14 14 14
13 8 7 12 13 14 13 13 11 12 12 13 13 14 13 13 14 14 14 14 13 13 12 11 10 10 8 8 6 7 6 5 6 9 4 6 9 13 14 14 13 13 13
13 9 9 14 14 14 13 13 11 10 11 12 12 13 13 13 13 12 12 12 12 11 10 8 8 8 5 4 4 4 5 5 5 6 4 5 5 9 12 13 12 11 12
13 10 12 14 15 14 13 11 12 10 9 11 13 12 12 12 12 11 11 10 10 9 7 7 7 7 4 2 2 3 5 2 3 11 9 9 6 11 11 12 13 12 10
12 8 9 13 14 14 13 12 10 11 12 12 13 12 11 11 11 10 10 9 8 7 6 7 7 8 5 3 3 5 4 6 7 8 9 7 6 10 10 12 12 10 10
13 10 9 12 14 13 13 12 11 11 11 11 12 12 12 11 10 9 8 8 7 6 5 6 7 8 6 6 7 6 6 5 8 8 8 6 9 10 9 10 10 9 8
13 10 7 6 10 14 12 11 10 10 9 9 10 11 11 11 11 10 8 7 7 6 5 4 5 7 7 8 7 7 7 3 3 6 9 4 10 10 9 9 9 10 8
13 11 7 7 5 6 5 10 8 8 7 8 8 7 7 9 11 11 9 9 9 6 5 3 2 2 5 8 10 10 8 4 0 5 5 4 11 11 10 9 9 9 9
12 11 8 6 6 6 6 6 5 7 7 8 7 8 7 4 6 8 8 10 9 8 5 2 3 5 7 8 10 14 14 3 4 4 4 13 13 12 12 11 10 9 10
13 10 7 6 6 6 6 6 6 6 5 5 6 5 3 5 5 7 10 11 10 1 1 7 8 8 5 4 3 4 3 7 3 5 4 15 14 14 14 12 11 11 10
12 8 7 7 8 7 4 4 2 1 3 4 5 5 4 6 6 5 2 3 4 4 2 5 6 2 12 7 8 5 4 5 2 3 9 17 17 16 16 14 13 13 13
13 12 12 9 8 6 1 3 2 3 0 5 3 8 8 4 6 5 2 4 5 5 5 3 1 13 16 19 13 12 9 6 2 4 6 14 16 18 18 18 16 15 15
11 7 8 6 4 2 4 7 4 4 1 5 5 8 8 6 7 3 3 4 3 1 3 1 9 7 15 2 8 10 8 8 7 3 3 12 6 8 9 14 16 18 17
8 6 8 7 6 5 6 7 3 3 3 6 4 3 6 8 3 4 5 5 6 1 3 4 10 5 9 12 6 5 7 3 9 4 4 6 12 14 11 13 14 15 17
9 7 8 8 7 4 2 5 4 4 1 3 5 7 8 1 3 5 5 4 4 3 5 6 9 10 8 6 4 3 7 6 4 12 1 2 7 16 16 18 16 16 17
13 8 6 8 8 5 2 3 3 2 4 5 4 5 6 5 2 4 4 1 3 4 4 4 10 4 4 8 8 9 8 7 10 8 4 5 5 6 11 14 13 15 16
14 11 8 6 8 6 4 2 4 2 3 3 4 4 5 5 2 3 2 3 3 3 4 2 3 4 5 5 10 6 7 7 3 10 10 9 7 6 5 6 5 12 16
11 12 8 6 9 8 4 1 3 2 2 4 2 4 3 2 2 2 3 3 4 2 2 2 4 3 2 3 6 5 4 5 6 6 9 7 8 7 5 6 4 8 17
10 10 8 6 7 7 2 2 2 3 1 1 3 7 4 5 3 3 2 3 5 4 1 2 1 3 4 3 2 5 3 5 4 3 4 5 4 5 5 6 7 5 7
11 9 7 8 8 6 4 2 2 1 1 1 4 5 5 6 6 9 5 3 1 3 4 3 2 2 2 1 1 2 4 6 3 3 3 4 3 2 7 13 11 12 7
14 11 8 8 8 6 5 1 1 2 3 4 4 3 3 7 6 5 9 6 4 0 2 2 2 1 2 4 2 2 3 3 3 4 6 5 7 5 5 5 6 6 8
16 13 11 9 9 7 5 2 3 3 3 1 2 2 4 7 7 8 11 8 7 6 4 3 1 1 2 3 4 3 2 4 3 6 3 4 6 5 7 5 6 4 6
15 14 12 12 11 8 6 3 2 3 4 3 3 3 2 2 4 7 10 11 4 4 7 5 6 5 2 2 2 2 3 4 2 2 5 5 4 5 5 4 5 5 4
15 14 10 8 4 3 4 4 3 3 5 3 2 1 2 0 3 4 6 8 7 5 5 5 4 4 4 3 3 4 3 3 4 3 3 5 6 6 5 5 5 5 4
Wind_Direction
119 117 94 102 95 93 92 87 83 86 85 87 87 87 86 87 89 94 97 97 98 99 98 98 98 95 95 97 100 102 103 104 106 107 102 92 83 84 117 93 97 93 99
127 120 111 109 101 97 94 92 93 91 93 93 91 91 93 93 95 96 100 106 105 102 103 99 99 97 98 101 99 103 109 113 117 115 107 101 94 89 92 101 102 106 102
117 124 113 111 101 102 100 96 95 98 97 97 99 99 100 101 105 107 109 111 107 105 97 102 103 102 108 107 113 116 114 123 130 130 114 106 99 98 100 105 107 105 103
123 113 118 113 107 104 99 98 91 98 98 98 102 102 100 104 102 107 109 108 110 108 109 111 109 114 115 111 126 116 129 138 148 172 132 114 106 105 107 107 110 113 110
108 114 119 114 113 106 104 101 104 100 102 106 106 105 104 106 110 114 114 110 108 108 112 117 119 120 129 130 129 132 160 185 211 228 188 113 101 107 115 119 120 124 113
115 124 126 124 117 113 113 110 105 102 105 119 116 116 115 116 115 114 113 116 116 115 113 118 127 136 147 156 187 229 253 250 331 102 112 115 106 120 117 113 113 108 109
121 130 123 120 118 118 115 114 115 104 107 128 125 119 121 123 123 126 128 129 128 123 116 113 117 136 153 164 219 236 274 323 81 122 112 118 123 125 122 125 120 123 130
129 130 124 124 125 126 119 114 117 116 116 124 129 129 132 132 137 142 147 149 150 145 137 119 127 142 168 207 226 248 273 351 120 110 113 118 133 134 135 128 129 135 144
130 123 123 124 133 128 126 127 127 122 123 132 133 136 144 151 157 164 172 176 178 178 164 153 154 171 198 221 236 251 266 275 88 127 128 132 148 145 148 147 150 147 151
137 140 142 143 134 128 147 141 139 135 135 123 125 139 162 175 173 179 189 202 204 195 200 197 220 274 271 275 279 270 259 294 314 149 129 154 151 160 163 165 166 163 166
130 138 138 154 171 158 157 153 162 155 150 145 158 180 189 215 228 199 206 214 211 209 220 301 274 271 278 286 302 307 308 304 200 148 144 165 167 170 174 177 179 181 185
138 140 154 151 192 184 171 161 185 185 191 182 211 220 217 238 221 223 210 217 225 139 315 241 241 239 250 311 292 343 26 315 252 148 162 171 176 178 182 186 188 195 199
141 154 151 164 198 209 173 187 200 94 246 187 126 22 349 293 244 205 231 215 75 129 151 276 211 78 21 18 348 78 55 354 295 171 175 181 187 188 189 191 197 201 210
151 164 170 188 201 203 181 172 125 130 137 27 66 93 11 7 311 269 217 234 128 226 160 227 100 97 56 358 321 289 52 5 33 293 175 196 198 195 195 193 196 205 210
156 156 127 158 164 174 130 115 151 213 171 80 308 92 131 285 277 28 32 61 151 245 307 25 84 88 105 348 326 314 67 350 323 354 346 230 216 302 266 224 205 202 212
151 171 132 141 120 84 99 127 177 202 224 111 295 235 195 214 338 29 28 22 352 17 6 360 94 101 153 155 230 319 344 22 293 328 233 172 158 212 234 241 238 234 223
153 147 138 127 109 93 43 139 185 242 151 195 184 220 216 353 351 68 350 322 309 324 7 5 120 101 261 77 280 262 257 228 341 240 305 184 165 199 211 203 218 230 235
135 140 140 138 131 130 224 302 337 219 177 229 223 179 194 209 225 65 49 276 299 346 9 30 142 136 225 162 195 201 224 216 175 248 255 208 198 232 238 205 198 226 232
144 148 170 157 143 170 205 251 282 310 342 184 209 195 198 213 202 109 115 268 279 337 32 22 32 141 189 181 171 229 266 251 253 198 212 194 201 258 265 260 225 241 238
147 158 169 168 157 158 177 287 288 317 314 14 29 211 217 241 190 11 335 342 289 355 29 27 31 352 336 311 318 287 237 245 135 175 205 216 202 225 281 291 287 248 232
154 159 168 159 164 139 145 223 305 291 351 139 46 47 16 355 301 183 286 350 13 12 324 15 2 349 323 353 319 320 320 321 92 231 259 312 281 233 233 243 251 239 237
166 167 164 150 150 149 154 197 162 159 142 221 26 38 349 3 9 327 316 285 24 29 360 36 295 287 293 334 301 288 335 325 336 249 265 299 280 241 243 230 227 223 217
170 173 171 149 154 160 169 185 143 55 32 51 58 312 352 32 0 32 340 325 335 256 303 295 324 271 271 302 308 179 335 277 304 305 321 316 316 314 298 279 249 211 215
172 169 157 156 159 176 181 200 187 171 116 139 98 337 11 40 18 9 4 331 23 340 323 321 31 6 25 322 330 319 218 214 297 320 317 299 304 306 296 294 297 275 209
167 174 175 167 161 171 182 173 111 105 116 92 113 150 102 3 62 34 355 298 34 18 336 349 358 356 311 291 268 292 314 316 282 236 300 306 317 297 292 286 283 284 260
173 175 145 78 53 84 150 180 152 111 77 95 147 85 100 132 21 102 92 324 317 316 325 309 306 315 306 297 282 276 237 227 275 280 279 294 279 285 274 280 286 286 285